GFSCGP_prec_pwat_348.txt.gz
Precipitable_Water
0.45 0.33 0.31 0.41 0.46 0.54 0.52 0.50 0.44 0.44 0.46 0.42 0.42 0.54 0.62 0.69 0.72 0.67 0.73 0.77 0.83 0.95 1.03 1.07 1.22 1.32 1.41 1.46 1.42 1.46 1.52 1.46 1.36 1.24 1.09 1.04 1.00 1.01 1.01 0.98 0.94 0.88 0.82 0.78
0.39 0.29 0.43 0.52 0.47 0.51 0.48 0.46 0.47 0.44 0.46 0.41 0.42 0.51 0.64 0.70 0.69 0.66 0.65 0.75 0.83 0.93 0.97 0.99 1.17 1.25 1.34 1.37 1.39 1.45 1.45 1.35 1.28 1.19 1.13 1.08 1.04 1.02 0.98 1.00 0.96 0.92 0.86 0.82
0.30 0.36 0.51 0.47 0.40 0.39 0.47 0.40 0.47 0.39 0.43 0.42 0.43 0.51 0.57 0.65 0.79 0.77 0.73 0.83 0.86 0.89 0.90 0.90 1.03 1.15 1.24 1.28 1.33 1.38 1.36 1.26 1.16 1.16 1.14 1.09 1.06 1.01 0.94 0.92 0.91 0.92 0.86 0.83
0.37 0.47 0.46 0.48 0.42 0.34 0.41 0.56 0.46 0.38 0.38 0.30 0.44 0.31 0.53 0.58 0.65 0.73 0.69 0.78 0.83 0.91 1.00 0.97 0.96 1.08 1.13 1.20 1.32 1.33 1.26 1.17 1.12 1.14 1.08 1.00 0.93 0.86 0.91 0.88 0.91 0.93 0.90 0.86
0.39 0.44 0.41 0.41 0.46 0.53 0.39 0.53 0.44 0.39 0.34 0.36 0.37 0.37 0.43 0.56 0.56 0.63 0.67 0.75 0.83 0.89 0.98 0.98 0.92 1.04 1.15 1.18 1.21 1.27 1.25 1.19 1.14 1.12 1.08 1.01 0.94 0.93 0.94 0.92 0.89 0.90 0.91 0.92
0.45 0.56 0.53 0.50 0.53 0.52 0.52 0.47 0.45 0.42 0.38 0.28 0.35 0.39 0.38 0.44 0.46 0.54 0.63 0.70 0.81 0.87 0.97 1.01 1.06 1.01 1.08 1.17 1.21 1.21 1.19 1.17 1.16 1.14 1.11 1.04 0.97 0.94 0.91 0.90 0.87 0.88 0.89 0.93
0.37 0.41 0.53 0.52 0.43 0.57 0.47 0.43 0.33 0.28 0.29 0.28 0.39 0.36 0.41 0.53 0.53 0.48 0.52 0.62 0.74 0.84 0.88 0.95 0.96 1.00 0.97 1.01 1.13 1.19 1.15 1.10 1.14 1.14 1.11 1.06 1.01 0.99 0.96 0.95 0.92 0.87 0.84 0.89
0.28 0.24 0.36 0.40 0.42 0.40 0.44 0.42 0.30 0.22 0.23 0.24 0.36 0.28 0.33 0.46 0.57 0.56 0.56 0.61 0.71 0.82 0.88 0.92 0.97 0.98 1.00 1.00 1.01 1.08 1.10 1.09 1.12 1.11 1.07 1.07 1.04 1.00 1.01 1.03 1.00 0.94 0.90 0.89
0.31 0.32 0.44 0.43 0.42 0.42 0.39 0.34 0.38 0.31 0.32 0.26 0.27 0.30 0.39 0.48 0.53 0.59 0.62 0.66 0.70 0.80 0.86 0.90 0.95 0.98 1.02 1.03 1.02 1.02 1.02 1.04 1.08 1.07 1.08 1.04 1.01 0.99 0.96 1.01 1.00 0.97 0.96 0.98
0.36 0.28 0.38 0.41 0.42 0.40 0.37 0.40 0.26 0.27 0.22 0.20 0.24 0.25 0.24 0.34 0.38 0.54 0.60 0.63 0.69 0.73 0.78 0.85 0.90 0.93 1.00 1.04 1.11 1.12 1.11 1.08 1.11 1.12 1.10 1.05 1.02 1.06 1.03 1.05 1.02 1.00 0.98 0.98
0.40 0.33 0.31 0.36 0.31 0.31 0.33 0.31 0.31 0.30 0.27 0.17 0.17 0.20 0.29 0.30 0.33 0.41 0.57 0.62 0.67 0.67 0.70 0.76 0.81 0.88 0.93 1.01 1.09 1.12 1.13 1.15 1.15 1.14 1.15 1.11 1.05 1.04 1.08 1.07 1.10 1.08 1.08 1.04
0.38 0.33 0.25 0.30 0.36 0.38 0.35 0.32 0.31 0.23 0.20 0.24 0.21 0.17 0.31 0.34 0.36 0.40 0.49 0.63 0.64 0.68 0.68 0.72 0.75 0.82 0.84 0.93 0.97 1.00 1.04 1.06 1.13 1.16 1.19 1.17 1.12 1.10 1.04 1.03 1.07 1.10 1.04 1.13
0.36 0.28 0.21 0.25 0.30 0.34 0.29 0.30 0.30 0.29 0.27 0.20 0.17 0.17 0.30 0.33 0.34 0.39 0.44 0.54 0.58 0.62 0.65 0.68 0.70 0.75 0.78 0.81 0.86 0.92 0.98 1.01 1.06 1.09 1.09 1.11 1.11 1.12 1.09 1.06 1.07 1.07 1.05 1.15
0.40 0.32 0.25 0.19 0.24 0.29 0.25 0.27 0.29 0.27 0.22 0.20 0.19 0.20 0.24 0.28 0.32 0.36 0.41 0.46 0.51 0.56 0.59 0.63 0.64 0.68 0.73 0.77 0.78 0.81 0.85 0.92 0.98 1.02 1.04 1.05 1.06 1.08 1.06 1.09 1.08 1.07 1.08 1.08
0.39 0.26 0.30 0.30 0.31 0.30 0.28 0.26 0.25 0.24 0.24 0.21 0.22 0.23 0.26 0.28 0.28 0.32 0.38 0.41 0.42 0.44 0.49 0.55 0.59 0.64 0.68 0.71 0.73 0.75 0.74 0.74 0.79 0.86 0.91 0.94 0.98 1.03 1.06 1.07 1.06 1.06 1.06 1.06
0.42 0.30 0.31 0.25 0.31 0.32 0.27 0.28 0.27 0.25 0.25 0.24 0.25 0.25 0.32 0.32 0.33 0.31 0.30 0.32 0.34 0.38 0.43 0.48 0.51 0.55 0.58 0.60 0.60 0.60 0.61 0.64 0.67 0.70 0.73 0.79 0.84 0.88 0.92 0.97 1.01 1.03 1.04 1.03
0.39 0.36 0.31 0.24 0.31 0.29 0.23 0.25 0.27 0.27 0.29 0.24 0.22 0.23 0.30 0.31 0.31 0.32 0.32 0.32 0.31 0.34 0.37 0.39 0.41 0.42 0.43 0.46 0.49 0.51 0.54 0.57 0.58 0.60 0.64 0.67 0.71 0.74 0.78 0.82 0.85 0.89 0.95 0.99
0.37 0.37 0.36 0.29 0.31 0.20 0.26 0.31 0.30 0.28 0.27 0.29 0.29 0.29 0.31 0.31 0.33 0.34 0.35 0.35 0.35 0.35 0.36 0.37 0.38 0.39 0.41 0.44 0.45 0.48 0.50 0.52 0.53 0.54 0.55 0.58 0.59 0.63 0.66 0.71 0.74 0.77 0.82 0.84
0.34 0.34 0.30 0.26 0.26 0.28 0.32 0.31 0.28 0.26 0.23 0.32 0.30 0.31 0.32 0.34 0.34 0.34 0.37 0.38 0.37 0.37 0.38 0.38 0.39 0.40 0.41 0.42 0.43 0.44 0.45 0.46 0.46 0.47 0.48 0.50 0.51 0.51 0.52 0.53 0.55 0.59 0.64 0.67
0.28 0.30 0.27 0.26 0.20 0.17 0.24 0.28 0.34 0.35 0.23 0.33 0.36 0.36 0.34 0.35 0.28 0.31 0.38 0.40 0.39 0.39 0.38 0.37 0.39 0.40 0.39 0.40 0.40 0.40 0.40 0.40 0.41 0.41 0.42 0.43 0.44 0.44 0.45 0.46 0.47 0.49 0.50 0.51
0.23 0.23 0.19 0.21 0.20 0.22 0.28 0.30 0.31 0.17 0.14 0.22 0.27 0.32 0.35 0.33 0.36 0.38 0.40 0.40 0.40 0.39 0.38 0.39 0.39 0.38 0.39 0.39 0.39 0.38 0.38 0.38 0.39 0.39 0.39 0.39 0.40 0.39 0.39 0.40 0.41 0.41 0.41 0.42
0.26 0.23 0.22 0.23 0.21 0.17 0.27 0.28 0.22 0.25 0.27 0.27 0.27 0.28 0.29 0.32 0.36 0.38 0.40 0.40 0.41 0.41 0.41 0.41 0.39 0.39 0.40 0.40 0.40 0.38 0.38 0.39 0.40 0.39 0.39 0.39 0.39 0.39 0.39 0.39 0.38 0.39 0.39 0.38
0.25 0.28 0.27 0.27 0.25 0.30 0.31 0.30 0.34 0.34 0.31 0.31 0.31 0.31 0.30 0.29 0.29 0.32 0.35 0.38 0.39 0.40 0.41 0.41 0.41 0.42 0.43 0.42 0.41 0.40 0.40 0.40 0.39 0.39 0.38 0.39 0.39 0.39 0.40 0.38 0.38 0.38 0.39 0.39
0.31 0.34 0.31 0.30 0.30 0.29 0.31 0.33 0.34 0.33 0.31 0.28 0.28 0.27 0.25 0.23 0.22 0.20 0.23 0.29 0.33 0.36 0.38 0.39 0.40 0.40 0.40 0.41 0.41 0.41 0.41 0.41 0.41 0.41 0.41 0.42 0.42 0.43 0.44 0.44 0.44 0.43 0.43 0.42
0.31 0.32 0.28 0.28 0.30 0.33 0.36 0.37 0.35 0.34 0.33 0.30 0.30 0.30 0.28 0.25 0.22 0.21 0.20 0.21 0.22 0.25 0.30 0.33 0.34 0.35 0.36 0.37 0.38 0.40 0.42 0.42 0.41 0.40 0.39 0.38 0.38 0.38 0.36 0.36 0.36 0.35 0.36 0.36
0.32 0.29 0.25 0.24 0.29 0.30 0.31 0.33 0.36 0.38 0.35 0.33 0.32 0.31 0.32 0.31 0.28 0.27 0.25 0.24 0.23 0.24 0.26 0.25 0.25 0.28 0.31 0.31 0.29 0.29 0.29 0.29 0.28 0.27 0.27 0.27 0.27 0.27 0.27 0.27 0.27 0.30 0.30 0.30

GFSCGP_prec_pwat_351.txt.gz
Precipitable_Water
0.42 0.27 0.26 0.45 0.47 0.48 0.44 0.48 0.46 0.56 0.57 0.55 0.52 0.53 0.63 0.75 0.78 0.70 0.72 0.75 0.83 0.91 1.03 1.07 1.11 1.22 1.33 1.45 1.49 1.47 1.48 1.52 1.55 1.42 1.31 1.11 1.05 1.08 1.06 1.03 0.97 0.90 0.86 0.82
0.34 0.19 0.36 0.49 0.53 0.48 0.44 0.40 0.46 0.53 0.58 0.49 0.50 0.52 0.62 0.71 0.75 0.72 0.72 0.76 0.80 0.87 0.93 0.99 1.07 1.15 1.25 1.35 1.46 1.50 1.44 1.43 1.47 1.41 1.29 1.14 1.10 1.07 1.03 1.00 0.95 0.91 0.85 0.81
0.26 0.27 0.43 0.46 0.46 0.42 0.44 0.41 0.39 0.47 0.53 0.53 0.51 0.47 0.56 0.68 0.77 0.79 0.79 0.82 0.86 0.85 0.84 0.87 0.99 1.06 1.22 1.32 1.42 1.43 1.41 1.43 1.45 1.38 1.28 1.18 1.12 1.05 0.97 0.94 0.92 0.93 0.90 0.84
0.30 0.36 0.41 0.41 0.42 0.42 0.36 0.51 0.51 0.50 0.46 0.35 0.50 0.31 0.48 0.62 0.67 0.71 0.70 0.75 0.80 0.86 0.90 0.88 0.94 1.05 1.17 1.29 1.39 1.40 1.45 1.46 1.38 1.32 1.21 1.10 0.98 0.89 0.90 0.91 0.94 0.93 0.93 0.88
0.25 0.29 0.38 0.34 0.38 0.45 0.39 0.54 0.55 0.53 0.45 0.40 0.40 0.34 0.41 0.60 0.57 0.66 0.69 0.70 0.79 0.86 0.88 0.88 0.88 1.01 1.13 1.26 1.32 1.36 1.39 1.39 1.30 1.23 1.16 1.09 1.01 1.00 0.99 0.97 0.93 0.93 0.94 0.93
0.34 0.51 0.49 0.44 0.45 0.46 0.52 0.54 0.52 0.52 0.47 0.33 0.37 0.34 0.33 0.48 0.50 0.62 0.74 0.73 0.79 0.84 0.90 0.95 0.96 0.98 1.07 1.20 1.23 1.29 1.32 1.32 1.27 1.21 1.13 1.06 1.03 1.02 0.98 0.96 0.92 0.92 0.91 0.91
0.40 0.42 0.52 0.54 0.43 0.46 0.41 0.42 0.33 0.29 0.31 0.30 0.42 0.34 0.34 0.50 0.54 0.57 0.65 0.72 0.78 0.83 0.86 0.90 0.91 0.92 0.92 1.05 1.12 1.13 1.20 1.21 1.23 1.18 1.14 1.12 1.09 1.06 1.01 0.96 0.94 0.92 0.88 0.87
0.29 0.26 0.44 0.51 0.44 0.37 0.39 0.39 0.28 0.19 0.21 0.26 0.41 0.29 0.29 0.48 0.57 0.59 0.69 0.68 0.73 0.79 0.85 0.88 0.92 0.95 0.97 0.95 1.01 1.07 1.08 1.08 1.14 1.12 1.11 1.14 1.13 1.09 1.06 1.04 1.01 0.98 0.91 0.90
0.30 0.31 0.43 0.42 0.50 0.47 0.36 0.32 0.37 0.29 0.30 0.26 0.29 0.32 0.36 0.47 0.49 0.57 0.58 0.65 0.70 0.76 0.81 0.87 0.93 0.96 0.99 1.03 1.02 0.98 1.00 1.06 1.08 1.07 1.11 1.12 1.12 1.07 1.03 1.03 1.04 1.03 1.02 0.97
0.37 0.28 0.36 0.40 0.46 0.44 0.41 0.41 0.27 0.29 0.19 0.18 0.21 0.24 0.22 0.32 0.38 0.50 0.55 0.55 0.62 0.73 0.78 0.84 0.90 0.97 1.00 1.06 1.09 1.12 1.09 1.01 1.04 1.05 1.07 1.09 1.09 1.09 1.05 1.03 1.00 1.00 1.03 1.02
0.38 0.32 0.30 0.36 0.33 0.33 0.36 0.33 0.33 0.31 0.26 0.17 0.17 0.17 0.27 0.28 0.37 0.43 0.51 0.58 0.61 0.68 0.72 0.77 0.82 0.90 0.95 1.03 1.07 1.07 1.09 1.10 1.05 1.07 1.08 1.11 1.08 1.10 1.09 1.06 1.08 1.02 1.06 1.06
0.37 0.31 0.25 0.29 0.37 0.38 0.36 0.32 0.33 0.24 0.21 0.25 0.23 0.16 0.30 0.31 0.38 0.46 0.49 0.58 0.65 0.67 0.72 0.78 0.82 0.87 0.89 0.93 1.01 1.05 1.08 1.10 1.13 1.14 1.13 1.13 1.15 1.18 1.15 1.09 1.07 1.13 1.12 1.16
0.35 0.28 0.20 0.25 0.31 0.34 0.30 0.33 0.34 0.32 0.29 0.23 0.19 0.18 0.30 0.33 0.35 0.44 0.49 0.57 0.62 0.66 0.71 0.77 0.82 0.83 0.85 0.88 0.91 0.99 1.05 1.09 1.12 1.12 1.08 1.09 1.10 1.10 1.12 1.12 1.12 1.12 1.10 1.06
0.41 0.31 0.25 0.18 0.22 0.29 0.26 0.30 0.32 0.30 0.24 0.22 0.22 0.24 0.28 0.31 0.33 0.37 0.45 0.57 0.60 0.63 0.67 0.73 0.76 0.78 0.82 0.84 0.86 0.90 0.94 1.02 1.07 1.10 1.08 1.08 1.10 1.09 1.11 1.12 1.12 1.11 1.12 1.11
0.42 0.28 0.32 0.31 0.31 0.30 0.28 0.28 0.30 0.28 0.26 0.22 0.22 0.24 0.28 0.30 0.34 0.40 0.44 0.55 0.61 0.61 0.63 0.66 0.71 0.74 0.78 0.80 0.83 0.84 0.86 0.89 0.92 0.95 1.00 1.04 1.06 1.07 1.08 1.09 1.10 1.12 1.14 1.12
0.44 0.32 0.34 0.29 0.34 0.34 0.29 0.30 0.29 0.28 0.29 0.28 0.27 0.25 0.31 0.34 0.34 0.38 0.43 0.46 0.50 0.57 0.64 0.68 0.70 0.72 0.73 0.76 0.75 0.77 0.80 0.84 0.86 0.84 0.85 0.88 0.91 0.94 0.96 0.99 1.01 1.04 1.06 1.09
0.39 0.37 0.33 0.26 0.34 0.33 0.26 0.27 0.28 0.28 0.28 0.27 0.23 0.24 0.33 0.33 0.33 0.33 0.35 0.37 0.37 0.39 0.44 0.47 0.50 0.57 0.66 0.71 0.74 0.74 0.77 0.77 0.76 0.74 0.71 0.70 0.72 0.75 0.79 0.84 0.87 0.90 0.92 0.94
0.37 0.36 0.35 0.29 0.32 0.22 0.29 0.34 0.33 0.30 0.29 0.32 0.30 0.30 0.31 0.32 0.35 0.37 0.38 0.36 0.36 0.36 0.38 0.41 0.44 0.46 0.50 0.54 0.57 0.60 0.62 0.62 0.60 0.60 0.60 0.61 0.62 0.64 0.66 0.68 0.71 0.72 0.76 0.78
0.35 0.36 0.31 0.27 0.26 0.28 0.31 0.32 0.31 0.28 0.25 0.33 0.31 0.32 0.35 0.36 0.36 0.34 0.38 0.39 0.38 0.39 0.41 0.41 0.42 0.42 0.43 0.45 0.47 0.50 0.52 0.53 0.53 0.53 0.53 0.54 0.55 0.54 0.55 0.55 0.56 0.58 0.59 0.61
0.32 0.32 0.28 0.28 0.22 0.19 0.25 0.29 0.36 0.35 0.21 0.32 0.34 0.33 0.34 0.36 0.29 0.31 0.38 0.40 0.40 0.41 0.41 0.40 0.40 0.40 0.40 0.41 0.43 0.44 0.45 0.46 0.46 0.47 0.48 0.49 0.49 0.48 0.48 0.48 0.49 0.50 0.50 0.50
0.27 0.27 0.24 0.23 0.23 0.26 0.32 0.34 0.36 0.20 0.20 0.26 0.27 0.31 0.35 0.34 0.37 0.40 0.42 0.42 0.43 0.42 0.41 0.41 0.40 0.39 0.40 0.41 0.41 0.41 0.41 0.41 0.42 0.43 0.42 0.42 0.42 0.41 0.41 0.41 0.41 0.41 0.41 0.41
0.25 0.24 0.24 0.26 0.23 0.20 0.33 0.31 0.25 0.31 0.33 0.31 0.29 0.28 0.27 0.29 0.33 0.36 0.40 0.43 0.44 0.43 0.43 0.42 0.41 0.41 0.41 0.41 0.41 0.40 0.39 0.41 0.41 0.40 0.39 0.39 0.39 0.39 0.39 0.39 0.39 0.39 0.39 0.38
0.24 0.27 0.25 0.27 0.27 0.32 0.35 0.32 0.36 0.38 0.35 0.35 0.34 0.34 0.34 0.32 0.32 0.32 0.33 0.35 0.38 0.40 0.41 0.43 0.42 0.42 0.43 0.42 0.41 0.40 0.40 0.40 0.40 0.41 0.40 0.40 0.40 0.40 0.40 0.39 0.39 0.38 0.38 0.38
0.31 0.33 0.29 0.30 0.33 0.34 0.37 0.39 0.38 0.36 0.35 0.36 0.35 0.32 0.29 0.28 0.27 0.26 0.25 0.26 0.30 0.33 0.35 0.38 0.40 0.41 0.42 0.43 0.44 0.43 0.43 0.43 0.43 0.42 0.41 0.41 0.41 0.41 0.42 0.43 0.43 0.42 0.42 0.41
0.31 0.32 0.29 0.28 0.31 0.30 0.31 0.32 0.34 0.37 0.40 0.39 0.37 0.33 0.32 0.31 0.30 0.27 0.24 0.23 0.24 0.24 0.25 0.28 0.32 0.34 0.37 0.40 0.41 0.42 0.43 0.43 0.42 0.42 0.42 0.42 0.43 0.42 0.41 0.41 0.40 0.39 0.40 0.39
0.35 0.35 0.29 0.29 0.33 0.30 0.30 0.32 0.32 0.33 0.34 0.37 0.38 0.37 0.38 0.36 0.33 0.34 0.30 0.28 0.27 0.27 0.27 0.26 0.26 0.27 0.29 0.30 0.33 0.36 0.39 0.40 0.39 0.38 0.37 0.36 0.35 0.34 0.33 0.31 0.30 0.32 0.32 0.32

GFSCGP_prec_pwat_354.txt.gz
Precipitable_Water
0.36 0.25 0.24 0.42 0.46 0.48 0.49 0.41 0.43 0.52 0.66 0.62 0.52 0.53 0.64 0.76 0.77 0.77 0.74 0.73 0.80 0.84 0.99 1.10 1.11 1.20 1.24 1.29 1.40 1.48 1.50 1.48 1.45 1.34 1.31 1.28 1.13 1.15 1.14 1.15 1.09 1.00 0.89 0.82
0.27 0.19 0.33 0.53 0.51 0.47 0.51 0.42 0.44 0.54 0.63 0.63 0.54 0.53 0.69 0.75 0.81 0.81 0.73 0.72 0.78 0.87 0.95 1.04 1.07 1.12 1.15 1.19 1.33 1.43 1.47 1.52 1.46 1.42 1.44 1.34 1.13 1.13 1.14 1.12 1.06 1.00 0.92 0.85
0.18 0.26 0.43 0.47 0.44 0.40 0.45 0.45 0.45 0.46 0.58 0.63 0.57 0.51 0.59 0.72 0.80 0.83 0.78 0.74 0.82 0.86 0.88 0.96 1.00 1.03 1.13 1.17 1.28 1.40 1.51 1.52 1.52 1.49 1.43 1.37 1.18 1.15 1.08 1.04 0.98 0.95 0.92 0.86
0.26 0.39 0.39 0.43 0.43 0.45 0.37 0.48 0.48 0.48 0.47 0.39 0.57 0.36 0.53 0.63 0.67 0.74 0.73 0.73 0.78 0.84 0.96 0.99 0.98 0.99 1.10 1.20 1.34 1.43 1.50 1.47 1.49 1.49 1.38 1.25 1.04 0.97 1.01 0.98 0.96 0.93 0.92 0.87
0.21 0.34 0.40 0.37 0.40 0.43 0.39 0.48 0.45 0.47 0.47 0.46 0.49 0.41 0.48 0.63 0.60 0.66 0.73 0.76 0.79 0.84 0.89 0.93 0.95 0.98 1.11 1.24 1.28 1.38 1.44 1.43 1.42 1.41 1.37 1.24 1.11 1.06 1.05 1.00 0.94 0.94 0.94 0.93
0.28 0.47 0.47 0.45 0.47 0.49 0.50 0.48 0.47 0.48 0.45 0.35 0.44 0.40 0.40 0.50 0.56 0.64 0.71 0.74 0.75 0.81 0.89 0.95 0.99 0.99 1.08 1.22 1.29 1.36 1.35 1.35 1.39 1.35 1.32 1.20 1.12 1.08 1.03 0.98 0.94 0.95 0.94 0.93
0.31 0.38 0.50 0.49 0.39 0.49 0.46 0.45 0.31 0.29 0.30 0.30 0.46 0.39 0.36 0.50 0.57 0.59 0.63 0.67 0.72 0.78 0.86 0.89 0.93 0.93 0.99 1.10 1.21 1.26 1.27 1.25 1.33 1.32 1.24 1.16 1.13 1.10 1.04 1.00 0.99 0.98 0.94 0.92
0.26 0.25 0.43 0.45 0.42 0.38 0.40 0.39 0.30 0.21 0.25 0.28 0.40 0.30 0.32 0.47 0.53 0.61 0.66 0.71 0.73 0.74 0.83 0.87 0.94 0.95 0.93 1.01 1.13 1.19 1.18 1.18 1.23 1.25 1.20 1.18 1.15 1.12 1.11 1.09 1.06 1.03 1.00 0.98
0.28 0.28 0.45 0.49 0.46 0.46 0.32 0.26 0.40 0.29 0.33 0.28 0.32 0.32 0.36 0.42 0.45 0.54 0.59 0.68 0.72 0.77 0.84 0.87 0.95 0.99 0.98 0.98 1.03 1.12 1.13 1.14 1.14 1.13 1.16 1.15 1.14 1.11 1.10 1.13 1.14 1.11 1.09 1.05
0.36 0.26 0.38 0.42 0.44 0.46 0.40 0.38 0.27 0.27 0.17 0.16 0.22 0.24 0.23 0.31 0.34 0.43 0.50 0.53 0.63 0.73 0.80 0.87 0.93 0.97 1.01 1.02 1.04 1.10 1.12 1.10 1.13 1.17 1.15 1.12 1.12 1.13 1.15 1.15 1.11 1.08 1.07 1.08
0.40 0.32 0.29 0.34 0.35 0.35 0.33 0.31 0.31 0.29 0.25 0.16 0.15 0.15 0.28 0.31 0.33 0.41 0.49 0.54 0.59 0.67 0.75 0.82 0.88 0.94 0.98 1.03 1.06 1.09 1.12 1.13 1.16 1.19 1.17 1.15 1.12 1.15 1.16 1.13 1.11 1.07 1.07 1.06
0.40 0.33 0.25 0.28 0.38 0.44 0.39 0.34 0.34 0.23 0.21 0.23 0.20 0.17 0.30 0.32 0.37 0.40 0.43 0.51 0.59 0.62 0.71 0.79 0.85 0.90 0.94 0.99 1.03 1.05 1.09 1.11 1.16 1.19 1.21 1.19 1.16 1.16 1.14 1.13 1.14 1.14 1.13 1.14
0.39 0.29 0.22 0.25 0.33 0.38 0.33 0.34 0.35 0.33 0.30 0.23 0.19 0.18 0.29 0.34 0.34 0.40 0.43 0.51 0.60 0.65 0.64 0.70 0.80 0.85 0.90 0.95 1.00 1.02 1.05 1.07 1.11 1.17 1.19 1.20 1.19 1.19 1.20 1.19 1.20 1.19 1.16 1.14
0.44 0.33 0.26 0.20 0.24 0.32 0.30 0.32 0.33 0.31 0.25 0.24 0.22 0.24 0.28 0.28 0.31 0.36 0.46 0.53 0.57 0.62 0.67 0.68 0.72 0.77 0.87 0.94 0.97 0.98 1.01 1.07 1.09 1.11 1.17 1.19 1.20 1.22 1.21 1.18 1.18 1.20 1.18 1.14
0.42 0.29 0.31 0.32 0.33 0.33 0.32 0.32 0.34 0.30 0.28 0.24 0.24 0.24 0.28 0.31 0.30 0.34 0.43 0.55 0.59 0.60 0.67 0.71 0.74 0.80 0.87 0.91 0.96 0.98 0.98 0.99 1.03 1.05 1.07 1.09 1.13 1.15 1.15 1.15 1.13 1.17 1.22 1.19
0.45 0.33 0.36 0.29 0.34 0.34 0.29 0.32 0.32 0.32 0.31 0.29 0.29 0.25 0.34 0.35 0.36 0.36 0.39 0.45 0.53 0.63 0.67 0.73 0.77 0.81 0.84 0.88 0.91 0.93 0.93 0.94 0.97 0.95 0.96 1.01 1.03 1.06 1.05 1.08 1.13 1.04 1.07 1.11
0.40 0.37 0.32 0.27 0.35 0.33 0.27 0.29 0.30 0.30 0.31 0.30 0.25 0.26 0.34 0.35 0.35 0.34 0.37 0.42 0.46 0.53 0.64 0.70 0.74 0.79 0.84 0.87 0.91 0.91 0.94 0.95 0.93 0.93 0.92 0.92 0.95 0.96 0.97 0.99 0.98 0.99 1.00 0.99
0.36 0.36 0.36 0.30 0.33 0.23 0.33 0.38 0.36 0.32 0.30 0.33 0.31 0.31 0.33 0.34 0.37 0.39 0.41 0.40 0.41 0.45 0.50 0.56 0.64 0.70 0.75 0.77 0.78 0.82 0.82 0.83 0.85 0.85 0.85 0.85 0.86 0.85 0.84 0.82 0.79 0.80 0.82 0.83
0.35 0.35 0.31 0.27 0.27 0.31 0.33 0.37 0.37 0.33 0.28 0.34 0.33 0.34 0.36 0.37 0.37 0.35 0.40 0.41 0.42 0.44 0.47 0.49 0.51 0.52 0.53 0.55 0.59 0.64 0.67 0.68 0.68 0.67 0.67 0.67 0.67 0.66 0.65 0.64 0.63 0.64 0.65 0.65
0.39 0.39 0.31 0.29 0.24 0.20 0.31 0.37 0.42 0.39 0.25 0.36 0.35 0.34 0.34 0.36 0.29 0.30 0.39 0.41 0.41 0.43 0.44 0.45 0.46 0.47 0.47 0.49 0.52 0.53 0.55 0.56 0.56 0.56 0.56 0.56 0.55 0.54 0.54 0.54 0.55 0.56 0.56 0.56
0.28 0.29 0.27 0.25 0.23 0.26 0.34 0.37 0.40 0.23 0.21 0.31 0.31 0.29 0.31 0.30 0.35 0.38 0.41 0.43 0.45 0.45 0.44 0.45 0.45 0.44 0.44 0.44 0.45 0.44 0.46 0.47 0.50 0.52 0.52 0.52 0.53 0.52 0.53 0.52 0.52 0.51 0.50 0.51
0.24 0.23 0.22 0.25 0.22 0.19 0.33 0.33 0.26 0.31 0.36 0.37 0.35 0.35 0.31 0.31 0.33 0.38 0.41 0.43 0.44 0.44 0.44 0.45 0.44 0.43 0.43 0.43 0.43 0.43 0.43 0.45 0.45 0.45 0.45 0.44 0.44 0.44 0.43 0.43 0.43 0.43 0.43 0.42
0.23 0.26 0.24 0.27 0.26 0.33 0.34 0.33 0.36 0.36 0.34 0.37 0.36 0.37 0.37 0.34 0.33 0.33 0.34 0.36 0.39 0.42 0.44 0.46 0.45 0.44 0.44 0.45 0.45 0.43 0.43 0.43 0.42 0.41 0.41 0.41 0.42 0.42 0.41 0.40 0.40 0.39 0.39 0.38
0.30 0.33 0.29 0.29 0.30 0.31 0.33 0.37 0.39 0.40 0.39 0.38 0.37 0.37 0.35 0.31 0.30 0.30 0.30 0.31 0.32 0.34 0.36 0.39 0.41 0.43 0.44 0.45 0.46 0.45 0.45 0.45 0.43 0.42 0.41 0.41 0.41 0.40 0.41 0.40 0.40 0.40 0.40 0.41
0.32 0.33 0.31 0.30 0.32 0.32 0.36 0.35 0.35 0.34 0.35 0.36 0.39 0.38 0.36 0.36 0.32 0.31 0.31 0.30 0.27 0.25 0.26 0.27 0.29 0.33 0.36 0.39 0.41 0.43 0.45 0.45 0.43 0.43 0.43 0.43 0.44 0.42 0.43 0.44 0.44 0.44 0.44 0.43
0.35 0.34 0.31 0.29 0.37 0.35 0.35 0.35 0.34 0.32 0.32 0.34 0.35 0.37 0.40 0.39 0.37 0.37 0.35 0.34 0.34 0.31 0.29 0.28 0.27 0.26 0.27 0.28 0.31 0.34 0.36 0.37 0.38 0.39 0.40 0.42 0.42 0.42 0.41 0.41 0.40 0.43 0.42 0.40

GFSCGP_prec_pwat_357.txt.gz
Precipitable_Water
0.41 0.28 0.18 0.27 0.38 0.45 0.42 0.43 0.39 0.52 0.59 0.62 0.57 0.55 0.69 0.96 0.96 0.88 0.86 0.89 0.85 0.86 0.99 1.08 1.15 1.19 1.22 1.26 1.27 1.27 1.33 1.37 1.38 1.40 1.37 1.33 1.29 1.30 1.18 1.16 1.12 1.03 0.95 0.87
0.28 0.19 0.30 0.43 0.49 0.45 0.45 0.47 0.44 0.53 0.61 0.59 0.56 0.52 0.68 0.82 0.81 0.84 0.84 0.84 0.85 0.89 0.91 1.00 1.08 1.16 1.16 1.22 1.26 1.29 1.37 1.40 1.41 1.41 1.36 1.32 1.26 1.20 1.18 1.17 1.14 1.07 0.98 0.89
0.22 0.27 0.41 0.41 0.49 0.45 0.46 0.46 0.44 0.44 0.56 0.61 0.57 0.48 0.58 0.75 0.85 0.89 0.92 0.87 0.82 0.81 0.81 0.91 0.99 1.07 1.16 1.17 1.23 1.29 1.35 1.43 1.45 1.46 1.41 1.39 1.36 1.24 1.15 1.14 1.11 1.06 1.00 0.94
0.29 0.42 0.44 0.45 0.43 0.49 0.39 0.53 0.51 0.45 0.41 0.37 0.57 0.36 0.53 0.65 0.70 0.77 0.83 0.86 0.81 0.83 0.89 0.93 0.97 1.00 1.05 1.15 1.26 1.28 1.37 1.45 1.50 1.50 1.41 1.35 1.28 1.09 1.05 1.09 1.09 1.04 1.01 0.95
0.27 0.34 0.41 0.41 0.44 0.50 0.44 0.53 0.50 0.50 0.44 0.45 0.47 0.41 0.47 0.65 0.63 0.71 0.79 0.80 0.80 0.85 0.90 0.90 0.96 1.02 1.06 1.12 1.18 1.24 1.37 1.44 1.53 1.53 1.49 1.37 1.33 1.22 1.12 1.13 1.09 1.04 1.00 0.96
0.37 0.50 0.49 0.47 0.48 0.49 0.51 0.47 0.49 0.46 0.44 0.33 0.43 0.42 0.39 0.47 0.54 0.66 0.75 0.79 0.78 0.84 0.90 0.95 1.01 1.06 1.05 1.09 1.18 1.24 1.31 1.40 1.52 1.48 1.49 1.39 1.33 1.20 1.08 1.09 1.04 1.01 0.99 0.96
0.32 0.36 0.48 0.53 0.41 0.50 0.47 0.36 0.29 0.28 0.28 0.29 0.45 0.41 0.40 0.54 0.62 0.63 0.68 0.75 0.79 0.82 0.84 0.89 0.95 0.97 1.00 1.00 1.12 1.22 1.28 1.32 1.43 1.44 1.37 1.38 1.35 1.24 1.10 1.08 1.03 1.00 0.97 0.95
0.20 0.20 0.39 0.46 0.43 0.39 0.42 0.40 0.28 0.21 0.22 0.28 0.45 0.32 0.37 0.48 0.62 0.66 0.70 0.73 0.77 0.79 0.82 0.83 0.92 0.98 1.01 1.01 1.08 1.17 1.21 1.26 1.34 1.31 1.29 1.30 1.31 1.23 1.19 1.15 1.11 1.07 1.02 1.01
0.24 0.25 0.44 0.46 0.49 0.49 0.41 0.36 0.41 0.32 0.33 0.28 0.32 0.37 0.44 0.46 0.53 0.59 0.62 0.69 0.70 0.74 0.79 0.81 0.92 0.98 1.02 0.98 1.00 1.10 1.16 1.23 1.25 1.25 1.30 1.27 1.27 1.19 1.15 1.14 1.13 1.10 1.11 1.11
0.35 0.26 0.37 0.41 0.45 0.45 0.41 0.44 0.30 0.31 0.23 0.20 0.25 0.26 0.26 0.34 0.38 0.47 0.51 0.56 0.62 0.70 0.73 0.78 0.89 0.93 1.01 1.03 1.02 1.11 1.18 1.17 1.21 1.23 1.27 1.29 1.24 1.21 1.19 1.18 1.14 1.14 1.15 1.17
0.39 0.32 0.32 0.39 0.34 0.33 0.35 0.29 0.32 0.29 0.27 0.19 0.17 0.19 0.31 0.33 0.39 0.42 0.46 0.54 0.62 0.67 0.72 0.77 0.85 0.93 1.01 1.06 1.06 1.05 1.14 1.16 1.15 1.18 1.21 1.21 1.21 1.21 1.21 1.19 1.19 1.20 1.19 1.16
0.40 0.34 0.25 0.28 0.37 0.43 0.40 0.34 0.32 0.23 0.20 0.22 0.20 0.17 0.28 0.32 0.37 0.42 0.43 0.47 0.59 0.67 0.73 0.79 0.85 0.93 0.97 0.99 1.05 1.06 1.08 1.12 1.16 1.18 1.19 1.19 1.23 1.24 1.21 1.20 1.22 1.25 1.18 1.15
0.39 0.31 0.23 0.25 0.31 0.35 0.32 0.34 0.33 0.33 0.30 0.21 0.17 0.17 0.28 0.30 0.33 0.38 0.43 0.51 0.58 0.62 0.68 0.76 0.79 0.82 0.92 0.96 1.00 1.04 1.07 1.08 1.15 1.17 1.18 1.17 1.19 1.20 1.22 1.22 1.24 1.27 1.26 1.26
0.44 0.32 0.26 0.20 0.24 0.30 0.27 0.31 0.34 0.30 0.25 0.23 0.21 0.22 0.26 0.29 0.28 0.32 0.40 0.49 0.56 0.62 0.67 0.70 0.75 0.80 0.89 0.96 0.98 1.00 1.04 1.09 1.12 1.14 1.15 1.13 1.13 1.18 1.21 1.24 1.22 1.22 1.25 1.25
0.42 0.29 0.31 0.32 0.34 0.33 0.29 0.29 0.33 0.29 0.28 0.23 0.23 0.23 0.29 0.32 0.32 0.32 0.36 0.44 0.49 0.54 0.61 0.69 0.72 0.75 0.82 0.89 0.96 1.03 1.06 1.08 1.10 1.09 1.08 1.09 1.10 1.17 1.19 1.21 1.22 1.24 1.24 1.23
0.44 0.32 0.35 0.28 0.33 0.34 0.29 0.31 0.33 0.33 0.31 0.28 0.28 0.24 0.34 0.37 0.38 0.37 0.37 0.38 0.42 0.51 0.59 0.66 0.73 0.79 0.82 0.87 0.93 0.98 1.02 1.05 1.09 1.06 1.06 1.09 1.11 1.11 1.14 1.17 1.19 1.18 1.16 1.15
0.39 0.38 0.34 0.27 0.34 0.34 0.28 0.30 0.30 0.31 0.33 0.31 0.25 0.26 0.36 0.35 0.36 0.38 0.39 0.40 0.39 0.43 0.55 0.64 0.69 0.76 0.83 0.86 0.91 0.94 0.98 1.05 1.05 1.05 1.06 1.05 1.05 1.04 1.04 1.06 1.07 1.08 1.09 1.05
0.33 0.35 0.37 0.32 0.35 0.23 0.32 0.38 0.37 0.34 0.34 0.35 0.32 0.31 0.34 0.35 0.37 0.39 0.41 0.41 0.42 0.43 0.48 0.60 0.70 0.73 0.77 0.84 0.88 0.92 0.96 0.98 1.00 1.01 1.01 0.99 0.98 0.96 0.96 0.94 0.94 0.95 0.99 0.99
0.38 0.35 0.30 0.27 0.28 0.31 0.34 0.38 0.37 0.34 0.31 0.38 0.35 0.34 0.35 0.36 0.36 0.35 0.40 0.42 0.43 0.46 0.50 0.54 0.64 0.74 0.80 0.82 0.84 0.87 0.87 0.88 0.88 0.88 0.90 0.90 0.91 0.91 0.90 0.89 0.88 0.88 0.88 0.87
0.42 0.41 0.33 0.30 0.25 0.22 0.32 0.39 0.44 0.44 0.30 0.41 0.38 0.36 0.36 0.36 0.28 0.29 0.40 0.42 0.42 0.45 0.48 0.52 0.58 0.62 0.63 0.65 0.70 0.72 0.72 0.73 0.73 0.76 0.78 0.80 0.80 0.79 0.78 0.78 0.76 0.74 0.72 0.70
0.31 0.33 0.29 0.29 0.26 0.29 0.37 0.41 0.44 0.27 0.27 0.38 0.36 0.33 0.31 0.29 0.33 0.35 0.39 0.41 0.43 0.44 0.45 0.48 0.49 0.51 0.53 0.55 0.55 0.53 0.55 0.56 0.60 0.62 0.63 0.64 0.65 0.65 0.64 0.63 0.62 0.60 0.59 0.60
0.24 0.23 0.24 0.27 0.25 0.23 0.37 0.38 0.30 0.35 0.37 0.37 0.38 0.38 0.36 0.34 0.33 0.33 0.34 0.38 0.42 0.43 0.45 0.46 0.46 0.46 0.48 0.49 0.49 0.48 0.47 0.49 0.50 0.51 0.51 0.51 0.52 0.52 0.53 0.53 0.54 0.54 0.54 0.53
0.24 0.26 0.23 0.24 0.24 0.30 0.36 0.35 0.41 0.40 0.35 0.35 0.36 0.37 0.38 0.34 0.32 0.34 0.35 0.37 0.39 0.43 0.45 0.46 0.46 0.46 0.46 0.47 0.47 0.45 0.45 0.46 0.47 0.46 0.46 0.46 0.46 0.46 0.46 0.44 0.43 0.42 0.42 0.41
0.30 0.33 0.28 0.28 0.30 0.31 0.33 0.36 0.36 0.35 0.35 0.38 0.39 0.40 0.39 0.35 0.34 0.32 0.33 0.35 0.33 0.35 0.39 0.43 0.46 0.46 0.46 0.47 0.47 0.46 0.47 0.47 0.46 0.45 0.44 0.44 0.43 0.42 0.42 0.42 0.41 0.40 0.40 0.40
0.32 0.34 0.32 0.30 0.33 0.34 0.35 0.38 0.36 0.38 0.36 0.34 0.35 0.34 0.35 0.36 0.35 0.35 0.34 0.34 0.35 0.33 0.30 0.29 0.31 0.34 0.38 0.41 0.44 0.47 0.47 0.47 0.46 0.45 0.44 0.44 0.44 0.43 0.42 0.42 0.42 0.41 0.43 0.43
0.33 0.32 0.30 0.29 0.37 0.36 0.37 0.40 0.40 0.38 0.36 0.36 0.35 0.34 0.36 0.37 0.37 0.37 0.36 0.36 0.36 0.35 0.35 0.31 0.28 0.27 0.26 0.28 0.30 0.35 0.39 0.41 0.42 0.42 0.44 0.44 0.44 0.44 0.44 0.44 0.45 0.48 0.47 0.45

GFSCGP_prec_pwat_360.txt.gz
Precipitable_Water
0.42 0.30 0.22 0.19 0.27 0.32 0.33 0.35 0.36 0.42 0.53 0.55 0.56 0.54 0.56 0.73 0.82 0.85 0.87 0.88 0.89 0.89 1.01 1.06 1.10 1.16 1.21 1.22 1.21 1.27 1.32 1.36 1.39 1.35 1.30 1.31 1.33 1.39 1.36 1.24 1.19 1.10 1.00 0.94
0.30 0.20 0.26 0.31 0.35 0.37 0.39 0.37 0.36 0.47 0.54 0.54 0.56 0.52 0.60 0.74 0.82 0.86 0.90 0.90 0.91 0.94 0.98 1.02 1.06 1.11 1.15 1.17 1.20 1.23 1.29 1.34 1.38 1.37 1.34 1.37 1.37 1.39 1.37 1.25 1.19 1.16 1.08 1.01
0.22 0.25 0.38 0.38 0.39 0.37 0.38 0.37 0.39 0.41 0.53 0.57 0.55 0.47 0.53 0.75 0.92 0.94 0.97 0.98 0.93 0.87 0.89 0.96 0.99 1.03 1.11 1.12 1.18 1.18 1.22 1.29 1.40 1.40 1.39 1.40 1.38 1.35 1.29 1.18 1.13 1.13 1.08 1.00
0.35 0.45 0.45 0.43 0.41 0.46 0.36 0.50 0.47 0.45 0.43 0.36 0.53 0.34 0.50 0.65 0.74 0.83 0.89 0.96 0.92 0.88 0.93 0.94 0.94 0.97 1.02 1.09 1.23 1.24 1.23 1.27 1.40 1.44 1.41 1.35 1.24 1.15 1.12 1.12 1.13 1.13 1.11 1.02
0.31 0.39 0.42 0.41 0.46 0.52 0.46 0.58 0.48 0.48 0.43 0.44 0.44 0.40 0.45 0.64 0.57 0.73 0.82 0.90 0.91 0.92 0.93 0.90 0.91 0.96 1.06 1.14 1.18 1.26 1.28 1.33 1.37 1.41 1.46 1.40 1.33 1.34 1.28 1.18 1.14 1.14 1.11 1.05
0.37 0.51 0.51 0.46 0.49 0.53 0.58 0.51 0.50 0.49 0.43 0.31 0.41 0.40 0.40 0.49 0.61 0.70 0.83 0.88 0.91 0.92 0.90 0.95 1.00 1.03 1.07 1.16 1.19 1.22 1.26 1.27 1.34 1.40 1.47 1.42 1.39 1.34 1.31 1.18 1.11 1.12 1.10 1.05
0.33 0.39 0.50 0.53 0.43 0.49 0.48 0.40 0.28 0.27 0.28 0.28 0.42 0.38 0.38 0.50 0.61 0.67 0.70 0.76 0.87 0.93 0.90 0.92 0.95 0.98 1.01 1.06 1.09 1.15 1.20 1.17 1.28 1.36 1.47 1.51 1.38 1.40 1.37 1.26 1.15 1.10 1.05 1.02
0.21 0.17 0.34 0.46 0.42 0.38 0.40 0.40 0.28 0.20 0.21 0.27 0.42 0.27 0.31 0.47 0.56 0.69 0.76 0.82 0.88 0.86 0.87 0.90 0.94 0.98 1.01 1.04 1.07 1.07 1.10 1.14 1.24 1.33 1.41 1.50 1.46 1.40 1.41 1.30 1.19 1.14 1.09 1.06
0.21 0.20 0.40 0.43 0.46 0.46 0.41 0.35 0.44 0.31 0.34 0.27 0.31 0.35 0.40 0.46 0.47 0.57 0.67 0.74 0.76 0.83 0.83 0.85 0.92 0.98 1.01 1.04 1.06 1.04 1.07 1.17 1.23 1.32 1.43 1.45 1.39 1.36 1.31 1.24 1.24 1.21 1.18 1.14
0.29 0.22 0.38 0.39 0.43 0.44 0.45 0.46 0.30 0.31 0.21 0.18 0.24 0.26 0.27 0.35 0.39 0.47 0.55 0.60 0.69 0.77 0.80 0.82 0.88 0.92 0.99 1.07 1.10 1.09 1.06 1.11 1.20 1.30 1.35 1.35 1.30 1.29 1.26 1.26 1.21 1.21 1.19 1.19
0.36 0.31 0.30 0.37 0.34 0.31 0.36 0.37 0.38 0.34 0.30 0.21 0.19 0.22 0.35 0.36 0.42 0.46 0.52 0.58 0.63 0.71 0.78 0.80 0.85 0.92 0.96 1.07 1.10 1.08 1.02 1.07 1.17 1.24 1.29 1.29 1.28 1.32 1.33 1.28 1.16 1.16 1.17 1.17
0.40 0.34 0.26 0.29 0.38 0.41 0.36 0.32 0.33 0.27 0.23 0.27 0.25 0.23 0.34 0.35 0.38 0.44 0.53 0.58 0.66 0.71 0.74 0.79 0.84 0.88 0.91 0.97 1.05 1.11 1.09 1.04 1.16 1.21 1.25 1.23 1.24 1.30 1.31 1.27 1.19 1.24 1.20 1.24
0.41 0.32 0.23 0.25 0.32 0.35 0.32 0.35 0.35 0.32 0.30 0.25 0.22 0.22 0.33 0.32 0.34 0.41 0.46 0.54 0.59 0.64 0.71 0.76 0.81 0.83 0.87 0.94 1.00 1.08 1.13 1.11 1.11 1.19 1.19 1.19 1.19 1.20 1.20 1.22 1.22 1.23 1.23 1.23
0.44 0.34 0.27 0.20 0.25 0.31 0.27 0.28 0.32 0.32 0.23 0.22 0.23 0.24 0.27 0.29 0.29 0.30 0.40 0.48 0.52 0.56 0.62 0.72 0.79 0.84 0.90 0.94 1.00 1.06 1.12 1.17 1.15 1.15 1.16 1.15 1.16 1.16 1.16 1.18 1.22 1.25 1.25 1.22
0.41 0.28 0.30 0.31 0.32 0.32 0.30 0.29 0.30 0.29 0.29 0.23 0.23 0.25 0.30 0.32 0.33 0.33 0.34 0.40 0.44 0.49 0.57 0.64 0.71 0.75 0.84 0.90 0.94 1.04 1.10 1.14 1.16 1.13 1.11 1.12 1.18 1.17 1.18 1.15 1.13 1.15 1.20 1.20
0.41 0.30 0.33 0.27 0.32 0.32 0.27 0.31 0.32 0.30 0.30 0.28 0.29 0.26 0.34 0.36 0.37 0.37 0.38 0.39 0.39 0.42 0.49 0.58 0.65 0.70 0.76 0.82 0.90 0.96 1.03 1.10 1.14 1.12 1.09 1.12 1.14 1.15 1.14 1.14 1.13 1.13 1.15 1.17
0.38 0.32 0.29 0.23 0.30 0.31 0.25 0.27 0.29 0.29 0.29 0.30 0.26 0.27 0.37 0.36 0.37 0.40 0.42 0.42 0.40 0.40 0.43 0.48 0.57 0.67 0.75 0.82 0.89 0.90 0.97 1.05 1.07 1.07 1.08 1.09 1.11 1.10 1.09 1.10 1.11 1.10 1.11 1.14
0.36 0.35 0.35 0.28 0.31 0.19 0.29 0.36 0.35 0.32 0.32 0.34 0.33 0.34 0.35 0.36 0.39 0.40 0.42 0.41 0.40 0.41 0.44 0.47 0.53 0.64 0.75 0.84 0.89 0.94 0.97 0.98 0.98 0.99 1.00 1.02 1.04 1.05 1.07 1.08 1.06 1.05 1.05 1.05
0.42 0.36 0.30 0.27 0.27 0.31 0.34 0.39 0.37 0.34 0.31 0.38 0.36 0.36 0.38 0.39 0.37 0.36 0.39 0.40 0.40 0.42 0.45 0.49 0.54 0.60 0.71 0.82 0.87 0.88 0.89 0.91 0.92 0.93 0.95 0.97 1.00 1.03 1.04 1.04 1.04 1.03 1.00 0.97
0.40 0.39 0.32 0.29 0.25 0.22 0.31 0.39 0.44 0.44 0.30 0.41 0.41 0.38 0.37 0.37 0.29 0.31 0.38 0.40 0.40 0.43 0.45 0.49 0.54 0.59 0.64 0.73 0.83 0.83 0.82 0.85 0.86 0.90 0.91 0.94 0.96 0.97 0.97 0.98 0.97 0.95 0.94 0.93
0.30 0.30 0.27 0.27 0.25 0.28 0.36 0.42 0.47 0.31 0.32 0.41 0.41 0.41 0.40 0.36 0.35 0.38 0.39 0.39 0.41 0.42 0.44 0.48 0.52 0.56 0.61 0.66 0.70 0.71 0.75 0.77 0.81 0.84 0.85 0.85 0.85 0.85 0.84 0.84 0.84 0.83 0.82 0.82
0.27 0.25 0.25 0.27 0.24 0.22 0.38 0.39 0.32 0.39 0.42 0.39 0.39 0.40 0.39 0.37 0.37 0.37 0.37 0.38 0.39 0.40 0.43 0.46 0.48 0.52 0.57 0.61 0.63 0.62 0.63 0.65 0.66 0.66 0.65 0.64 0.64 0.65 0.66 0.66 0.66 0.66 0.65 0.64
0.26 0.29 0.26 0.26 0.24 0.31 0.36 0.38 0.44 0.45 0.41 0.38 0.37 0.38 0.38 0.38 0.36 0.35 0.35 0.36 0.38 0.39 0.41 0.44 0.46 0.48 0.50 0.53 0.53 0.51 0.52 0.53 0.53 0.53 0.52 0.52 0.53 0.53 0.53 0.52 0.52 0.52 0.53 0.52
0.30 0.33 0.28 0.29 0.30 0.31 0.33 0.36 0.38 0.37 0.37 0.38 0.39 0.39 0.37 0.37 0.39 0.37 0.36 0.35 0.35 0.35 0.39 0.43 0.45 0.46 0.46 0.48 0.49 0.49 0.50 0.49 0.48 0.47 0.47 0.48 0.48 0.48 0.49 0.49 0.49 0.48 0.46 0.45
0.29 0.31 0.31 0.31 0.33 0.34 0.35 0.36 0.37 0.39 0.42 0.40 0.37 0.36 0.35 0.35 0.35 0.37 0.36 0.36 0.35 0.35 0.35 0.35 0.34 0.38 0.44 0.48 0.49 0.50 0.50 0.50 0.48 0.48 0.47 0.47 0.47 0.46 0.45 0.45 0.44 0.43 0.44 0.43
0.31 0.29 0.28 0.27 0.34 0.35 0.37 0.40 0.42 0.40 0.40 0.39 0.38 0.38 0.38 0.36 0.34 0.36 0.36 0.37 0.36 0.36 0.37 0.37 0.38 0.33 0.30 0.31 0.33 0.38 0.43 0.46 0.46 0.46 0.47 0.47 0.46 0.46 0.45 0.45 0.45 0.47 0.47 0.46